FLOCK 2K-15 (42890 NORAD) Tracking and Keplerian Element Data

This shows tracking and keplerian element data for the satellite.

Feedback or suggestion? Click here.




ElementValue
Catalog42890
NameFLOCK 2K-15
Epoch Orbit3282
Epoch Day45.60765611
Epoch Year2018
RAAN308.494
Inclination96.9936
Eccentricity0.00125
Argument of Perigee175.2776
Mean Anonmoly184.8589
Mean Motion15.3559582
Decay Rate6.878E-05
L11 42890U 17042BT 18045.60765611 .00006878 00000-0 20045-3 0 9990
L22 42890 96.9936 308.4940 0012500 175.2776 184.8589 15.35595820 32829

Live tracking and technical data element details for FLOCK 2K-15 (NORAD 42890). FLOCK 2K-15 can be tracked NOW for your location showing map with azimuth and elevation plus other details from your city location.

Track the satellite on the map from your city or location and see movement details for azimuth, elevation, latitude, longitude, range, height, and movement on the map or in text.







IsCatalogInMostPopularTable: catalog: 42890, numindb: 125
Update: records affected: 1



GetName: 42890 FLOCK 2K-15

Hit Count: updated at: Mon, 12 Nov 2018 18:02:55 GMT